Погода в Казани

Погода в Казани : погода сейчас, прогноз погоды и архив. Всё, что Вы хотите узнать о погоде в Казани!

Хотите узнать прогноз погоды в Казани? Тогда Вам сюда: Погода в Казани

Поиск расширенной информации на нашем сайте:

Другие новости

Новости СМИ2

Главная страница сайта

Новости сайта

03.07.2017

Напоминаем, что на нашем специализированном сайте Метеоцентр.Азия вы можете получить высокодетализированные автоматические прогнозы погоды по пунктам России, СНГ и мира в авиационном формате (включающие направление и скорость ветра, видимость, явления погоды, количество и форму облачности, нижнюю и верхнюю границу облачности).


Погода в Казани - сегодня

Время (UTC), дата Ветер
(°,м/с) 
Видим.   Явления Облачность Т
(°С)
Тd
(°С)
f(%) Тe
(°С)
Pmin
(гПа)
dP
(гПа)
Po
(мм)
O2
(г/м3)
Тmin Tmax R s Состояние
почвы
15 18.10.17 240 (ЮЗ) 10 км  слаб. дождь{морось}  10/10 300 м 
[Ns]
+7 +4.6 85 +6  1002.2  -0.9  741  290    +7       
18 18.10.17 250 (З) 10 км  {дождь}  10/8 300 м средняя 
[Sc|As op]
+8.5 +6.6 88 +8  1000.4  -1.6  740  288           
21 18.10.17 240 (ЮЗ) 10 км  {дождь}  10/10 300 м 
[Sc]
+9.2 +7.4 88 +9  999.5  -0.9  739  287           
00 19.10.17 260 (З) 10 км  {дождь}  10/8 300 м средняя 
[Sc|As trans]
+10 +7.9 87 +10  999.3  -0.2  739  286           
03 19.10.17 240 (ЮЗ) 4{10}  10 км  слаб. дождь  10/8 300 м средняя 
[Sc|As op]
+10.2 +7.7 84 +9  998.4  -0.8  738  285  +7    0.3    мокрая 
06 19.10.17 280 (З) 6-10{14}  10 км  {ливн. осадки, дождь}  8/8 600 м кучево-дожд. 
[Cb cap]
+8.4 +2.6 67 +7  1000.9  2.4  740  289           
09 19.10.17 290 (З) 5-11{12}  10 км    8/8 600 м кучево-дожд. 
[Cb cap]
+8.1 +2.5 68 +7  1003.3  2.4  742  290           
12 19.10.17 280 (З) 6-13{13}  10 км  ливневой дождь  10/10 300 м кучево-дожд. 
[Cb cap]
+7.7 +1.6 65 +6  1005.9  2.5  744  291           
15 19.10.17 280 (З) 3{13}  10 км  {ливн. осадки}  6/6 600 м кучево-дожд. 
[Cb cap]
+5.9 +2.5 79 +5  1008.1  2.1  745  294    +10.3  0.8     
18 19.10.17 280 (З) 4-11{11}  10 км  {ливн. осадки}  5/5 600 м 
[Sc diur, vesp]
+5.6 +2 78 +4  1009.2  746  294           
21 19.10.17 290 (З) 10 км    6/6 600 м 
[Sc diur, vesp]
+5.3 +1.5 76 +4  1009.9  0.7  746  295           
00 20.10.17 290 (З) 10 км    8/8 300 м кучево-дожд. 
[Cb cap]
+4.8 +0.7 75 +3  1010.8  0.8  747  296           
03 20.10.17 310 (СЗ) 3{11}  10 км    9/9 300 м 
[Sc diur, vesp]
+4.2 -0.5 71 +3  1012  1.2  748  297  +4.2        влажная 
06 20.10.17 310 (СЗ) 10 км    6/6 600 м кучево-дожд. 
[Cb cap]
+4 -1.4 68 +4  1013.5  1.5  749  298  +3.8         
09 20.10.17 290 (З) 10 км    8/8 600 м кучево-дожд. 
[Cb cap]
+6 -4 49 +5  1014.3  0.9  750  296           
12 20.10.17 350 (С) 10 км    9/9 600 м 
[Sc]
+3.6 -5 53 +3  1015.7  1.2  751  299           
15 20.10.17 320 (СЗ) 10 км    10/10 600 м 
[Sc]
+2.4 -4.4 61 +2  1017  1.2  752  301    +6.1       
18 20.10.17 330 (СЗ) 10 км  {снег}  10/10 600 м 
[Sc]
+2.2 -5.1 58 +3  1017.3  0.3  752  301           
21 20.10.17 330 (СЗ) 10 км    10/10 600 м 
[Sc]
+1.2 -3.7 70 +2  1017.1  -0.2  752  302           
00 21.10.17 010 (С) 10 км    10/10 600 м 
[Sc]
+0.9 -4.9 65 +2  1017  -0.2  752  302           
03 21.10.17 тихо ()   10 км    9/5 600 м средняя 
[Sc|Ac lent]
-0.8 -4.5 76 -1  1016.7  -0.4  751  304  -0.8    0.0    замёрзшая 
06 21.10.17 300 (СЗ) 10 км    9/9 600 м 
[Sc]
+1.4 -5.9 58 +2  1016.6  751  302  -0.9         
09 21.10.17 290 (З) 10 км    9/9 600 м 
[Cu Sc]
+2.3 -5 58 +1  1016  -0.5  751  301           
12 21.10.17 260 (З) 10 км    9/9 600 м 
[Sc]
+1.9 -4.1 64 1015.4  -0.7  750  301           
15 21.10.17 260 (З) 10 км    9/9 600 м кучево-дожд. 
[Cb cap]
+1.6 -2.6 74 +2  1015.3  0.1  750  301    +2.6       
Время (UTC), дата Ветер
(°,м/с) 
Видим.   Явления Облачность Т
(°С)
Тd
(°С)
f(%) Тe
(°С)
Pmin
(гПа)
dP
(гПа)
Po
(мм)
O2
(г/м3)
Тmin Tmax R s Состояние
почвы

Для получения пояснительной информации подведите курсор к названию столбца.

ПОГОДА в Казани - архив

Всё, что Вы хотите узнать о погоде в Казани - удобно и подробно!

Выберите нужную дату (начиная с 1 января 2015* года) и нажмите кнопку "Найти".
Будут отображены архивные сводки погоды по пункту Казань, начиная с указанной даты.


Отображать данные в формате CSV (для использования в таблицах Excel)


Внимание! Наш архив погоды предназначен исключительно для личного некоммерческого использования в познавательных целях. Если Вам необходимы официальные справки о состоянии погоды (для производственных, юридических, коммерческих и т.п. целей), обращайтесь в органы Росгидромета.

*Примечание: данная дата относится к архиву по метеостанциям СССР (Россия, СНГ, Балтия).
Архив по метеостанциям Зарубежной Европы и Азии (кроме Китая) хранится 10 дней, по другим регионам земного шара (Китай, Африка, Америка, Австралия, Океания) - 1 день.

Казань - район местоположения метеостанции


Название, широта, долгота, высота метеостанции:
Казань 55.6°ш. 49.3°д. 116 м над ур. моря [Российская Федерация]

Дополнительная информация

В oтличие oт бoльшинства пoгoдных сайтoв мы публикуем пoдрoбную метеoинфoрмацию в детальнoм прoфессиoнальнoм фoрмате.

Характеристики температуры и влажнoсти вoздуха измеряются на высoте 2 м в тени вдали oт зданий и деревьев.
Скoрoсть ветра измеряется на высoте 10 м (на урoвне рoста челoвека скoрoсть ветра ниже в 1.5-2 раза). Если метеoстанция нахoдится в гoрoде или в лесу, тo скoрoсть ветра занижена на 2-4 м/с пo сравнению с oткрытым местoм. Скoрoсть ветра над акватoриями крупных рек и oзёр, а также на вершинах хoлмoв на 2-5 м/с выше, чем в oбычных услoвиях.
Атмoсфернoе давление в разных тoчках местнoсти мoжет значительнo oтличаться oт давления на метеoстанции, в зависимoсти oт услoвий рельефа (при пoдъёме на 10 м давление пoнижается примернo на 1 мм рт.ст.).